Wetbulb
47.68 46.40 45.17 44.05 43.46 42.46 41.88 41.42 41.44 41.22 41.32 40.82 40.65 40.65 40.80 41.13 41.57 40.75 40.41 41.99 40.51 40.17
44.76 43.72 42.79 42.14 41.76 40.81 40.45 39.83 40.09 40.15 39.90 39.90 39.66 39.51 39.57 39.57 39.02 39.10 39.76 39.73 39.84 39.55
42.01 41.19 40.75 40.38 39.37 39.43 39.41 39.20 38.94 38.72 38.70 38.60 38.52 38.48 38.44 38.24 38.23 37.86 38.31 38.56 38.34 38.76
40.32 39.42 39.21 38.80 38.61 38.43 38.48 38.14 37.67 37.44 37.24 37.18 37.05 37.35 37.07 36.93 36.94 36.63 37.12 37.93 37.63 37.28
38.99 38.41 38.12 37.07 37.60 37.73 37.22 37.51 36.97 36.71 36.41 36.25 36.15 36.29 35.75 35.45 36.12 36.03 36.00 36.44 36.45 36.09
37.61 37.11 35.95 36.14 36.84 36.79 36.52 36.45 36.45 36.01 35.31 35.07 35.12 34.95 35.29 35.37 35.68 36.06 36.21 36.13 35.55 35.17
36.07 36.10 36.43 36.44 36.10 35.87 35.90 35.50 35.28 35.16 34.78 34.61 34.51 34.50 34.66 34.82 35.33 35.62 35.80 35.78 35.58 34.87
35.80 35.91 35.90 35.53 35.46 35.43 35.20 34.96 34.84 34.16 34.20 34.29 34.10 33.98 33.67 34.30 34.50 34.51 34.41 35.08 34.60 34.65
34.97 35.02 34.88 34.78 34.52 34.53 34.44 34.46 34.18 33.72 33.45 33.14 33.27 34.14 34.22 34.33 33.62 33.82 33.67 32.79 33.49 34.06
33.79 33.73 33.93 33.97 33.71 33.53 33.43 33.83 33.46 33.20 32.98 32.46 32.75 33.54 33.67 34.16 33.31 33.36 33.05 32.80 32.62 32.82
33.17 32.91 33.28 33.13 33.11 33.29 33.38 32.99 32.65 32.48 32.21 31.84 31.93 32.66 32.99 33.43 33.25 32.91 32.86 32.83 32.78 32.32
32.64 32.12 32.25 32.22 32.36 32.73 32.40 32.30 32.08 31.83 31.31 30.74 30.97 32.01 32.21 32.79 32.35 31.66 31.79 32.46 32.68 32.77
32.35 31.82 31.60 31.98 31.84 32.29 32.17 31.33 31.43 30.97 31.29 31.11 30.45 32.08 32.60 32.74 31.92 30.39 31.15 31.74 32.19 33.21
32.20 31.78 31.91 31.91 32.05 31.64 31.12 30.81 30.55 30.10 30.69 30.97 31.57 31.70 32.68 32.82 31.25 30.72 30.70 31.14 31.33 31.99
MSLP
1015.75 1015.89 1015.92 1015.91 1015.75 1015.74 1015.78 1015.78 1015.77 1015.52 1015.25 1015.02 1014.70 1014.30 1013.88 1013.47 1013.09 1012.62 1012.12 1011.52 1011.22 1010.52
1016.19 1016.30 1016.35 1016.29 1016.26 1016.23 1016.22 1016.14 1015.98 1015.72 1015.36 1015.04 1014.69 1014.32 1013.97 1013.43 1012.87 1012.45 1011.84 1011.34 1010.81 1010.28
1016.71 1016.73 1016.83 1016.93 1016.83 1016.69 1016.51 1016.37 1016.12 1015.79 1015.46 1015.05 1014.67 1014.30 1013.90 1013.27 1012.78 1012.27 1011.78 1011.18 1010.62 1010.05
1017.00 1017.06 1017.13 1017.25 1017.13 1017.01 1016.77 1016.54 1016.25 1016.00 1015.62 1015.18 1014.70 1014.30 1013.79 1013.20 1012.60 1012.07 1011.50 1010.95 1010.28 1009.71
1017.37 1017.45 1017.43 1017.56 1017.36 1017.12 1016.93 1016.80 1016.46 1016.11 1015.74 1015.26 1014.75 1014.26 1013.63 1012.98 1012.43 1011.80 1011.10 1010.47 1009.93 1009.34
1017.66 1017.75 1017.81 1017.65 1017.38 1017.32 1017.17 1016.89 1016.50 1016.22 1015.77 1015.23 1014.70 1014.15 1013.52 1012.85 1012.17 1011.44 1010.75 1010.12 1009.55 1009.03
1018.02 1017.99 1017.82 1017.68 1017.67 1017.50 1017.25 1016.91 1016.54 1016.15 1015.70 1015.19 1014.61 1013.95 1013.22 1012.76 1011.89 1011.15 1010.43 1009.83 1009.28 1008.77
1018.34 1018.18 1017.92 1017.84 1017.74 1017.48 1017.16 1016.80 1016.46 1016.05 1015.48 1014.90 1014.28 1013.54 1013.33 1012.65 1011.74 1010.85 1010.00 1009.31 1008.82 1008.28
1018.36 1018.18 1018.03 1017.90 1017.65 1017.26 1016.96 1016.57 1016.18 1015.61 1015.06 1014.47 1013.88 1013.43 1013.13 1012.55 1011.58 1010.62 1009.61 1008.79 1008.17 1007.59
1018.26 1018.17 1018.16 1017.86 1017.50 1017.12 1016.67 1016.23 1015.67 1015.18 1014.68 1014.09 1013.58 1013.15 1012.84 1012.22 1011.29 1010.14 1009.30 1008.53 1007.69 1006.75
1018.37 1018.29 1018.02 1017.68 1017.17 1016.71 1016.31 1015.81 1015.32 1014.75 1014.35 1013.82 1013.20 1012.85 1012.36 1011.70 1010.59 1009.62 1008.84 1008.11 1007.26 1006.39
1018.43 1018.18 1017.87 1017.35 1016.91 1016.48 1016.05 1015.51 1014.94 1014.57 1014.01 1013.38 1012.69 1012.30 1011.95 1011.21 1010.15 1009.10 1008.19 1007.50 1006.75 1006.25
1018.40 1018.14 1017.65 1017.23 1016.80 1016.46 1015.98 1015.30 1014.74 1014.07 1013.58 1012.97 1012.27 1011.76 1011.42 1010.83 1009.79 1008.63 1007.66 1006.97 1006.32 1005.54
1018.18 1017.87 1017.54 1017.12 1016.73 1016.19 1015.56 1014.97 1014.31 1013.61 1012.97 1012.48 1011.93 1011.27 1010.87 1010.40 1009.52 1008.48 1007.43 1006.47 1005.33 1004.66
Wind_Speed
8 5 5 6 6 5 6 6 9 9 9 10 10 10 10 9 8 10 10 11 11 10
7 7 6 7 6 5 6 6 8 9 10 10 11 11 11 9 11 11 11 12 12 11
7 7 7 7 7 7 6 7 9 10 10 11 12 12 12 10 11 12 11 10 14 14
6 6 6 6 6 7 7 8 9 10 11 12 12 13 12 13 13 14 14 14 15 16
6 5 6 6 7 7 8 8 9 10 11 12 12 13 13 14 14 15 16 16 17 17
5 5 5 6 7 8 8 9 9 10 11 12 13 13 13 14 16 16 17 17 17 18
5 5 6 6 7 7 8 9 10 11 12 12 13 14 13 16 17 17 16 17 17 18
5 5 6 7 7 8 8 9 10 11 12 12 12 10 15 16 18 18 18 17 17 16
5 6 7 7 8 9 10 10 11 12 12 13 10 18 20 20 17 18 18 17 18 17
6 7 7 8 9 10 10 11 12 13 14 14 15 19 21 23 16 17 16 17 18 17
6 7 8 9 10 11 10 12 12 13 14 15 13 19 21 23 18 17 17 18 18 19
6 8 9 10 11 12 12 12 13 13 14 15 15 19 20 21 17 17 18 17 18 19
7 8 10 11 12 11 12 13 12 13 13 16 15 18 20 21 13 17 14 17 18 24
7 9 10 11 11 12 13 13 13 14 13 13 14 15 22 23 15 13 14 14 14 14
Wind_Direction
71 61 52 41 30 25 10 6 360 355 351 348 343 339 338 322 326 320 314 310 307 303
63 51 40 34 28 19 12 358 353 349 344 342 340 337 329 321 317 318 315 312 309 306
56 46 31 18 17 13 5 356 347 346 342 337 334 330 325 319 320 315 315 309 308 304
57 44 36 15 8 3 354 352 347 341 335 330 327 324 320 320 316 316 311 308 306 306
50 33 23 16 1 357 353 344 340 335 328 323 321 321 321 318 317 312 310 310 308 308
40 23 12 2 2 351 341 337 334 328 323 320 320 319 315 318 314 312 311 309 311 309
25 8 4 0 348 340 334 328 329 326 321 319 317 316 320 318 314 312 310 310 309 310
1 358 359 351 337 331 330 325 322 317 317 317 316 314 323 317 315 313 311 309 310 307
358 355 348 339 331 327 321 320 318 319 318 316 311 319 319 320 314 311 311 312 310 309
3 343 330 329 324 319 319 318 319 318 317 315 314 319 319 319 311 311 312 311 310 310
347 325 325 321 319 321 320 318 317 315 315 311 311 318 323 321 311 313 314 310 312 312
331 324 320 321 323 320 318 313 315 314 312 311 314 325 321 319 319 315 312 315 315 310
322 314 318 318 319 313 311 309 312 310 313 315 313 318 318 322 316 312 313 314 309 311
315 318 313 314 311 311 311 310 311 313 320 315 317 314 322 321 318 316 315 309 311 311